Powrót do katalogu

STARLINK-6136

AktywnyŁącznośćVLEO
NORAD 56540·PAYLOAD·🇺🇸 United States

Wystrzelony May 14, 2023 z Cape Canaveral Space Force Station

Loading…

Następne Przeloty (najbliższe 24 godziny)

TLE

ŚwieżeSource: CelesTrak SupGP

Epoka: Sep 14, 2026, 21:33 UTC

1 56540C 23065AP  26257.89840278  .00025953  00000+0  94027-3 0  2579
2 56540  43.0020 238.4260 0000988 279.1637 287.3049 15.27557609    17

Śledź STARLINK-6136 w czasie rzeczywistym z AllMySat

Download on the App Store